Abha, Saudi Arabia

3:56 PM +03 on September 19, 2019 (GMT +0300)
Abha

Weather History for OEAB - May, 2019

Change the Weather History Date:

Tuesday, May 14, 2019

  Actual Average Record
Temperature  
Mean Temperature 71 °F -  
Max Temperature 78 °F 82 °F 87 °F (1999)
Min Temperature 64 °F 59 °F 53 °F (1997)
Cooling Degree Days 6    
Growing Degree Days 21 (Base 50)    
Moisture  
Dew Point 48 °F    
Average Humidity 45    
Maximum Humidity 64    
Minimum Humidity 23    
Precipitation  
Precipitation 0.00 in - - ()
Sea Level Pressure  
Sea Level Pressure 30.23 in    
Wind  
Wind Speed 4 mph ()    
Max Wind Speed 13 mph    
Max Gust Speed -    
Visibility 5.1 miles    
Events Thunderstorm    
Averages and records for this station are not official NWS values.
T = Trace of Precipitation, MM = Missing Value Source: Averaged Metar Reports

Daily Weather History Graph

Daily Weather History Graph

Search for Another Location

Airport or City:

Astronomy

May. 14, 2019 Rise Set
Actual Time 5:36 AM +03 6:35 PM +03
Civil Twilight 5:13 AM +03 6:58 PM +03
Nautical Twilight 4:45 AM +03 7:25 PM +03
Astronomical Twilight 4:17 AM +03 7:53 PM +03
Moon 2:25 PM +03 (5/14) 2:18 AM +03 (5/14)
Length of Visible Light 13h 44m
Length of Day
12h 58m
Waxing Gibbous, 76% of the Moon is Illuminated
May 14
Waxing Gibbous
May 19
Full
May 26
Last Quarter
Jun 3
New
Jun 10
First Quarter

Hourly Weather History & Observations

Time (+03) Temp. Dew Point Humidity Pressure Visibility Wind Dir Wind Speed Gust Speed Precip Events Conditions
12:00 AM 68.0 °F 42.8 °F 40% 30.27 in 6.2 mi Calm Calm - N/A   Partly Cloudy
1:00 AM 68.0 °F 44.6 °F 43% 30.24 in - Calm Calm - N/A   Clear
2:00 AM 66.2 °F 53.6 °F 64% 30.24 in - Calm Calm - N/A   Clear
3:00 AM 66.2 °F 53.6 °F 64% 30.21 in - Calm Calm - N/A   Clear
4:00 AM 66.2 °F 53.6 °F 64% 30.21 in - Calm Calm - N/A   Clear
5:00 AM 64.4 °F 50.0 °F 59% 30.21 in - Calm Calm - N/A   Clear
6:00 AM 64.4 °F 50.0 °F 59% 30.24 in - North 3.5 mph - N/A   Clear
7:00 AM 68.0 °F 48.2 °F 49% 30.27 in 4.3 mi North 11.5 mph - N/A   Unknown
8:00 AM 69.8 °F 42.8 °F 38% 30.27 in 4.3 mi North 11.5 mph - N/A   Unknown
10:00 AM 75.2 °F 41.0 °F 29% 30.27 in 5.0 mi NE 6.9 mph - N/A   Unknown
11:00 AM 78.8 °F 42.8 °F 28% 30.27 in 4.3 mi East 10.4 mph - N/A   Unknown
1:00 PM 78.8 °F 37.4 °F 23% 30.21 in 4.3 mi SSW 8.1 mph - N/A   Scattered Clouds
2:00 PM 78.8 °F 50.0 °F 36% 30.18 in 5.0 mi SSW 12.7 mph - N/A   Scattered Clouds
4:00 PM 77.0 °F 50.0 °F 39% 30.18 in 5.0 mi SW 12.7 mph - N/A Thunderstorm Thunderstorm
5:00 PM 77.0 °F 50.0 °F 39% 30.18 in 5.0 mi SW 9.2 mph - N/A   Scattered Clouds
6:00 PM 76 °F 54 °F 35%  in 5 mi SSW 8.1 mph - -   Widespread Dust
6:00 PM 75.2 °F 53.6 °F 47% 30.21 in 5.0 mi SSW 8.1 mph - N/A   Scattered Clouds
7:00 PM 71.6 °F 51.8 °F 50% 30.21 in 6.2 mi SSW 6.9 mph - N/A   Partly Cloudy
8:00 PM 71.6 °F 51.8 °F 50% 30.24 in 6.2 mi South 4.6 mph - N/A   Partly Cloudy
9:00 PM 69.8 °F 42.8 °F 38% 30.27 in 6.2 mi East 4.6 mph - N/A   Partly Cloudy
11:00 PM 69.8 °F 46.4 °F 43% 30.27 in - NE 4.6 mph - N/A   Clear